User: anonymous   Login
Location: Unspecified
(0.0000°N, 0.0000°E)
Time: 15:11:01
(UTC+01:00)
Language:

Cosmos 540 Rocket - Orbit

View from above orbital plane
View from above orbital plane
View from above satellite
View from above satellite

Ground track
Ground track

The orbit data is extracted from the following two-line orbital elements,

1 06324U 72104B   15027.15796332  .00000159  00000-0  55355-4 0  4627
2 06324 074.0773 281.7434 0010276 284.6022 227.6726 14.43098119209771
Epoch (UTC): 27 January 2015 03:47:28
Eccentricity: 0.0010276
inclination: 74.0773°
perigee height: 741 km
apogee height: 755 km
right ascension of ascending node: 281.7434°
argument of perigee: 284.6022°
revolutions per day: 14.43098119
mean anomaly at epoch: 227.6726°
orbit number at epoch: 20977

The dashed part of the orbit path shows where the satellite is in the earth's shadow,  

DLR